Вернуться в каталог

THORAD AGENA D DEB

АктивенSSO
NORAD 42550·DEBRIS·🇺🇸 United States

Запущен Apr 8, 1970 с Vandenberg Space Force Base

Loading…

Ближайшие Пролёты (ближайшие 24 часа)

TLE

СвежийSource: Space-Track

Эпоха: Sep 12, 2026, 02:02 UTC

1 42550U 70025TG  26255.08495550  .00000602  00000-0  33881-3 0  9990
2 42550  99.2741 206.3164 0022170   3.9426  60.0181 14.14419652659023

Отслеживайте THORAD AGENA D DEB в реальном времени с AllMySat

Download on the App Store